Regional Weather Roundup
Issued by NWS

Home | Current Version | Previous Version | Graphics & Text | Print | Product List | Glossary On
Versions: 1 2 3 4 5 6 7 8 9 10 11 12 13 14 15 16 17 18 19 20 21 22 23 24 25 26 27 28 29 30 31 32 33 34 35 36 37 38 39 40 41 42 43 44 45 46 47 48 49 50
000
ASUS43 KMKX 241410
RWRWI

WISCONSIN REGIONAL WEATHER ROUNDUP
NATIONAL WEATHER SERVICE MILWAUKEE/SULLIVAN WI
900 AM CDT SUN MAY 24 2015

NOTE: "FAIR" INDICATES FEW OR NO CLOUDS BELOW 12,000 FEET WITH NO
SIGNIFICANT WEATHER AND/OR OBSTRUCTIONS TO VISIBILITY.

WIZ001-002-006>008-014>016-023>028-241500-
NORTHWEST WISCONSIN

CITY           SKY/WX    TMP DP  RH WIND       PRES   REMARKS
SUPERIOR ARPT  PTSUNNY   63  46  55 CALM      30.10S
ASHLAND        PTSUNNY   63  49  60 CALM      30.12S
HAYWARD        CLOUDY    63  49  60 NE3       30.11S
SIREN          CLOUDY    60  50  70 CALM      30.09S
CUMBERLAND     CLOUDY    61  46  59 SE5       30.10S
RICE LAKE      CLOUDY    64  47  55 E5        30.11S
CHETEK         CLOUDY    63  50  62 E3        30.09F
LADYSMITH      CLOUDY    65  48  54 SE5       30.13S
EAU CLAIRE     NOT AVBL
MENOMONIE      CLOUDY    63  49  60 E3        30.08S
NEW RICHMOND   CLOUDY    61  48  63 E7        30.07F
OSCEOLA        CLOUDY    62  51  69 E5        30.09F
$$

WIZ003>005-009-010-017-018-241500-
NORTH CENTRAL WISCONSIN

CITY           SKY/WX    TMP DP  RH WIND       PRES   REMARKS
MANITOWISH WTR CLOUDY    64  47  54 CALM      30.13F
ARBOR VITAE    CLOUDY    66  47  50 S5        30.14S
WOODRUFF       CLOUDY    66  47  50 S5        30.14S
RHINELANDER    CLOUDY    66  46  48 SE5       30.15S
EAGLE RIVER    PTSUNNY   67  43  41 CALM      30.14S
LAND O LAKES   PTSUNNY   66  42  42 CALM      30.15S
PHILLIPS       CLOUDY    63  47  55 E5        30.13R
TOMAHAWK       CLOUDY    64  48  56 CALM      30.14F
MEDFORD        CLOUDY    61  50  66 SE3       30.13S
MERRILL        CLOUDY    63  49  60 SE3       30.14S
$$

WIZ029-030-035-036-043>047-241500-
CENTRAL WISCONSIN

CITY           SKY/WX    TMP DP  RH WIND       PRES   REMARKS
WAUSAU         CLOUDY    64  50  60 SE3       30.12S
MOSINEE        SUNNY     63  52  67 CALM      30.14F
MARSHFIELD     CLOUDY    66  48  52 SE5       30.12S
STEVENS POINT  CLOUDY    63  47  55 CALM      30.13F
WAUPACA        CLOUDY    64  50  61 CALM      30.14S
WAUTOMA        NOT AVBL
WISC RAPIDS    CLOUDY    65  47  52 S5        30.13F
CAMP DOUGLAS   NOT AVBL
$$

WIZ011>013-019>022-031-037>040-048>050-241500-
NORTHEAST WISCONSIN

CITY           SKY/WX    TMP DP  RH WIND       PRES   REMARKS
ANTIGO         PTSUNNY   65  48  53 S7        30.15S
SHAWANO        CLOUDY    65  49  55 S3        30.14S
OCONTO         CLOUDY    64  50  58 SE3       30.13F
STURGEON BAY   CLOUDY    66  45  45 S8        30.17S
GREEN BAY      CLOUDY    65  48  54 S3        30.14F
MANITOWOC      NOT AVBL
APPLETON       PTSUNNY   64  48  55 VRB5      30.14F
CLINTONVILLE   CLOUDY    63  46  55 CALM      30.14S
OSHKOSH        CLOUDY    69  52  54 S7        30.13F
$$

WIZ032>034-041-042-053>061-241500-
SOUTHWEST WISCONSIN

CITY           SKY/WX    TMP DP  RH WIND       PRES   REMARKS
LA CROSSE      LGT RAIN  61  54  77 S10       30.11R
SPARTA         CLOUDY    60  51  70 CALM      30.11R
VIROQUA        CLOUDY    58  52  82 SE7       30.13R
BOSCOBEL       LGT RAIN  61  55  81 VRB5      30.14R
PRAIRIE DU CHI RAIN      59  55  85 E5        30.12R
PLATTEVILLE    CLOUDY    58  56  91 SE6       30.15R
$$

WIZ056-057-062-063-064-067-068-241500-
SOUTH CENTRAL WISCONSIN

CITY           SKY/WX    TMP DP  RH WIND       PRES   REMARKS
REEDSBURG      LGT RAIN  58  53  84 CALM      30.14R
BARABOO/DELLS  LGT RAIN  59  51  75 S6        30.14R
LONE ROCK      NOT AVBL
MINERAL POINT  RAIN      61  55  82 SE6       30.15R
MADISON        LGT RAIN  63  53  70 S7        30.15R
MIDDLETON      CLOUDY    64  53  67 S3        30.15R
WATERTOWN      CLOUDY    63  51  64 S7        30.15S
MONROE         DRIZZLE   61  55  82 CALM      30.15R
JANESVILLE     PTSUNNY   64  52  63 S8        30.15S
$$

WIZ051-052-058>065-066-070>072-241500-
SOUTHEAST WISCONSIN

CITY           SKY/WX    TMP DP  RH WIND       PRES   REMARKS
MILWAUKEE      CLOUDY    65  50  58 S8        30.17S
WAUKESHA       NOT AVBL
MILWAUKEE/TIMM DRIZZLE   63  48  59 S7        30.18R
RACINE         CLOUDY    64  50  60 S3        30.19S
BURLINGTON     CLOUDY    62  51  68 S3        30.17F
KENOSHA        CLOUDY    66  53  63 SW7       30.18S
FOND DU LAC    CLOUDY    69  48  47 S7        30.14S
SHEBOYGAN      PTSUNNY   67  51  56 S3        30.15F
WEST BEND      CLOUDY    64  52  63 CALM      30.16S
JUNEAU         CLOUDY    63  51  64 S8        30.16R
$$

LSZ147-162-241500-
LAKE SUPERIOR

STATION/POSITION TIME  TEMP    WIND        PRES    WAVE
                       AIR SEA DIR/SP/G            HT/PER
                 (UTC) (F)     (DEG/KT/KT) (MB)    (FT/S)
W MID LAKE BUOY  1250   43 36  220/  6/  8   N/A     1
DEVILS ISLAND    1300   58     230/  7/  8   N/A
PORT WING        1300   57      CALM  /  1   N/A
SAXON HARBOR     1300   61     170/  1/  4   N/A
$$

LMZ867-665-643>646-241500-
LAKE MICHIGAN

STATION/POSITION TIME  TEMP    WIND        PRES    WAVE
                       AIR SEA DIR/SP/G            HT/PER
                 (UTC) (F)     (DEG/KT/KT) (MB)    (FT/S)
CHAMBERS ISLAND  1300   65     180/  2/  4   N/A
N MID LAKE BUOY  1250   43 36  170/ 12/ 12   N/A     1
NORTHPORT PIER   1300   52     150/  2/  8   N/A
SISTER BAY       1302   71        CALM       N/A
KEWAUNEE LAKESHO 1300   49     170/  5/  7   N/A
SHEBOYGAN LAKESH 1300   51     170/  6/  6   N/A
PORT WASHINGTON  1300   51     160/  3/  4   N/A
ATWATER BUOY     1300   48 46  110/  2/  4   N/A
MILWAUKEE LAKESH 1300   53      60/  1/  1   N/A
S MID LAKE BUOY  1250   45 38  160/  8/  8   N/A     0
$$

TC  - TEMPERATURE IN CELSIUS
VSB - VISIBILITY IN STATUTE MILES
WCI - WIND CHILL INDEX
HX  - HEAT INDEX




USA.gov is the U.S. government's official web portal to all federal, state and local government web resources and services.